NOZ8ME ENGM-ENVA

Flight info

Callsign NOZ8ME
Flight time 0h 46m
Altitude 30000
Route RIBBE DCT GIGNI DCT VEVOD
Aircraft B738/M-SDE2E3FGHIRWXY/LB1

Departure

Time 2026-05-05 18:16
Airport Oslo-Gardermoen International Airport (ENGM)

Arrival

Time 2026-05-05 19:02
Airport Trondheim Airport, Værnes (ENVA)
Time Latitude Longitude Altitude Speed Heading
2026-05-05 17:54 60.19598 11.09904 679 ft 0 kts 105°
2026-05-05 18:01 60.19604 11.09865 677 ft 4 kts 110°
2026-05-05 18:02 60.19614 11.09817 676 ft 4 kts 116°
2026-05-05 18:02 60.19625 11.09776 673 ft 3 kts 130°
2026-05-05 18:02 60.19639 11.09752 677 ft 2 kts 153°
2026-05-05 18:02 60.19655 11.09741 675 ft 2 kts 175°
2026-05-05 18:03 60.19671 11.09741 676 ft 2 kts 186°
2026-05-05 18:03 60.19682 11.09744 678 ft 2 kts 189°
2026-05-05 18:03 60.19692 11.09747 678 ft 0 kts 189°
2026-05-05 18:05 60.19679 11.09741 677 ft 6 kts 199°
2026-05-05 18:05 60.19654 11.09623 677 ft 14 kts 275°
2026-05-05 18:06 60.19685 11.09390 674 ft 19 kts 286°
2026-05-05 18:06 60.19697 11.09306 674 ft 19 kts 286°
2026-05-05 18:06 60.19754 11.08903 672 ft 18 kts 286°
2026-05-05 18:06 60.19757 11.08674 672 ft 17 kts 229°
2026-05-05 18:07 60.19650 11.08594 673 ft 16 kts 197°
2026-05-05 18:07 60.19544 11.08532 672 ft 16 kts 195°
2026-05-05 18:07 60.19441 11.08474 671 ft 15 kts 195°
2026-05-05 18:07 60.19343 11.08419 671 ft 14 kts 195°
2026-05-05 18:08 60.19234 11.08354 670 ft 19 kts 196°
2026-05-05 18:08 60.19138 11.08299 668 ft 24 kts 197°
2026-05-05 18:08 60.18973 11.08205 668 ft 24 kts 195°
2026-05-05 18:08 60.18815 11.08115 667 ft 23 kts 197°
2026-05-05 18:09 60.18665 11.08027 667 ft 22 kts 197°
2026-05-05 18:09 60.18573 11.07974 666 ft 12 kts 197°
2026-05-05 18:09 60.18496 11.07927 665 ft 11 kts 197°
2026-05-05 18:09 60.18419 11.07888 665 ft 11 kts 197°
2026-05-05 18:10 60.18354 11.07788 665 ft 14 kts 262°
2026-05-05 18:10 60.18416 11.07603 664 ft 19 kts 323°
2026-05-05 18:10 60.18451 11.07553 664 ft 0 kts 324°
2026-05-05 18:12 60.18462 11.07537 664 ft 6 kts 326°
2026-05-05 18:12 60.18528 11.07451 663 ft 17 kts 330°
2026-05-05 18:13 60.18600 11.07433 663 ft 0 kts 14°
2026-05-05 18:16 60.18751 11.07519 665 ft 59 kts 16°
2026-05-05 18:16 60.19374 11.07878 670 ft 128 kts 15°
2026-05-05 18:16 60.20413 11.08463 840 ft 169 kts 14°
2026-05-05 18:16 60.21509 11.09107 1807 ft 165 kts 11°
2026-05-05 18:17 60.22572 11.09816 2773 ft 160 kts 17°
2026-05-05 18:17 60.23717 11.10511 3226 ft 188 kts 11°
2026-05-05 18:17 60.25084 11.11215 3495 ft 216 kts
2026-05-05 18:17 60.26638 11.11319 3833 ft 235 kts 351°
2026-05-05 18:18 60.28343 11.10796 4336 ft 255 kts 348°
2026-05-05 18:18 60.30085 11.10218 5321 ft 255 kts 348°
2026-05-05 18:18 60.31854 11.09648 6236 ft 259 kts 348°
2026-05-05 18:18 60.33649 11.09088 6756 ft 261 kts 351°
2026-05-05 18:19 60.35477 11.09399 6983 ft 270 kts 16°
2026-05-05 18:19 60.37222 11.10814 7012 ft 272 kts 20°
2026-05-05 18:19 60.38977 11.12360 7415 ft 277 kts 21°
2026-05-05 18:19 60.40748 11.13936 8374 ft 278 kts 21°
2026-05-05 18:20 60.42525 11.15512 9283 ft 281 kts 21°
2026-05-05 18:20 60.44332 11.17108 10124 ft 285 kts 21°
2026-05-05 18:20 60.46213 11.18760 10460 ft 307 kts 21°
2026-05-05 18:20 60.48249 11.20540 10699 ft 330 kts 21°
2026-05-05 18:21 60.50394 11.22421 11291 ft 340 kts 21°
2026-05-05 18:21 60.52576 11.24339 12096 ft 343 kts 21°
2026-05-05 18:21 60.54773 11.26272 12979 ft 345 kts 20°
2026-05-05 18:21 60.56990 11.28224 13806 ft 348 kts 20°
2026-05-05 18:22 60.59228 11.30195 14512 ft 354 kts 20°
2026-05-05 18:22 60.61505 11.32202 15183 ft 359 kts 19°
2026-05-05 18:22 60.63813 11.34239 15873 ft 364 kts 19°
2026-05-05 18:22 60.66152 11.36307 16594 ft 368 kts 19°
2026-05-05 18:23 60.68514 11.38399 17272 ft 373 kts 18°
2026-05-05 18:23 60.70908 11.40521 17924 ft 378 kts 18°
2026-05-05 18:23 60.73326 11.42667 18544 ft 381 kts 18°
2026-05-05 18:23 60.75824 11.44411 19048 ft 377 kts
2026-05-05 18:24 60.78424 11.44824 19638 ft 375 kts 355°
2026-05-05 18:24 60.81041 11.45067 20194 ft 379 kts 355°
2026-05-05 18:24 60.83689 11.45315 20740 ft 384 kts 355°
2026-05-05 18:24 60.86339 11.45590 21269 ft 388 kts 355°
2026-05-05 18:25 60.89049 11.45896 21806 ft 392 kts 354°
2026-05-05 18:25 60.90899 11.46116 22155 ft 395 kts 354°
2026-05-05 18:25 60.94556 11.46566 22835 ft 400 kts 354°
2026-05-05 18:25 60.97349 11.46916 23343 ft 404 kts 354°
2026-05-05 18:26 61.00171 11.47271 23763 ft 408 kts 354°
2026-05-05 18:26 61.03019 11.47629 24182 ft 411 kts 354°
2026-05-05 18:26 61.05880 11.47990 24599 ft 413 kts 354°
2026-05-05 18:26 61.08761 11.48306 24979 ft 415 kts 353°
2026-05-05 18:27 61.11650 11.48391 25366 ft 416 kts 351°
2026-05-05 18:27 61.14550 11.48359 25743 ft 418 kts 351°
2026-05-05 18:27 61.17467 11.48304 26129 ft 421 kts 351°
2026-05-05 18:27 61.20412 11.48265 26492 ft 425 kts 351°
2026-05-05 18:28 61.26363 11.48252 27207 ft 431 kts 352°
2026-05-05 18:28 61.29371 11.48265 27591 ft 433 kts 352°
2026-05-05 18:28 61.32386 11.48283 28096 ft 433 kts 352°
2026-05-05 18:29 61.35393 11.48299 28624 ft 431 kts 352°
2026-05-05 18:29 61.38392 11.48311 29119 ft 431 kts 352°
2026-05-05 18:29 61.41395 11.48321 29555 ft 432 kts 352°
2026-05-05 18:29 61.44401 11.48329 29973 ft 432 kts 352°
2026-05-05 18:30 61.47412 11.48340 30337 ft 432 kts 352°
2026-05-05 18:30 61.50416 11.48351 30707 ft 432 kts 352°
2026-05-05 18:30 61.53429 11.48361 30897 ft 435 kts 352°
2026-05-05 18:30 61.56472 11.48367 30900 ft 439 kts 353°
2026-05-05 18:31 61.62543 11.48396 30906 ft 432 kts 353°
2026-05-05 18:31 61.68545 11.48421 30914 ft 432 kts 353°
2026-05-05 18:32 61.74561 11.48438 30917 ft 433 kts 353°
2026-05-05 18:32 61.80594 11.48459 30915 ft 432 kts 353°
2026-05-05 18:33 61.83558 11.48478 30903 ft 420 kts 353°
2026-05-05 18:33 61.86464 11.48495 30902 ft 415 kts 353°
2026-05-05 18:33 61.92236 11.48505 30908 ft 416 kts 353°
2026-05-05 18:34 61.95101 11.48510 30681 ft 418 kts 353°
2026-05-05 18:34 61.97995 11.48523 30365 ft 413 kts 353°
2026-05-05 18:34 62.00852 11.48431 29972 ft 406 kts 349°
2026-05-05 18:34 62.03642 11.47921 29518 ft 400 kts 347°
2026-05-05 18:35 62.06390 11.47272 29103 ft 395 kts 347°
2026-05-05 18:35 62.09103 11.46586 28703 ft 390 kts 347°
2026-05-05 18:35 62.11782 11.45908 28281 ft 386 kts 347°
2026-05-05 18:35 62.14441 11.45248 27867 ft 383 kts 347°
2026-05-05 18:36 62.17074 11.44608 27474 ft 379 kts 348°
2026-05-05 18:36 62.19690 11.43983 27057 ft 376 kts 348°
2026-05-05 18:36 62.22280 11.43370 26685 ft 372 kts 348°
2026-05-05 18:36 62.24844 11.42767 26278 ft 370 kts 348°
2026-05-05 18:37 62.27393 11.42167 25885 ft 367 kts 349°
2026-05-05 18:37 62.29921 11.41571 25485 ft 364 kts 349°
2026-05-05 18:37 62.32427 11.40980 25099 ft 361 kts 349°
2026-05-05 18:37 62.34920 11.40392 24715 ft 359 kts 349°
2026-05-05 18:38 62.37390 11.39808 24339 ft 356 kts 349°
2026-05-05 18:38 62.39840 11.39228 23958 ft 353 kts 350°
2026-05-05 18:38 62.42275 11.38650 23579 ft 351 kts 350°
2026-05-05 18:38 62.44688 11.38077 23150 ft 348 kts 351°
2026-05-05 18:39 62.47086 11.37507 22735 ft 345 kts 351°
2026-05-05 18:39 62.49457 11.36943 22358 ft 341 kts 351°
2026-05-05 18:39 62.51802 11.36385 21993 ft 337 kts 351°
2026-05-05 18:39 62.54121 11.35831 21641 ft 333 kts 351°
2026-05-05 18:40 62.56421 11.35280 21268 ft 331 kts 351°
2026-05-05 18:40 62.58696 11.34735 20907 ft 327 kts 351°
2026-05-05 18:40 62.60921 11.34200 20574 ft 324 kts 351°
2026-05-05 18:40 62.63153 11.33664 20217 ft 322 kts 351°
2026-05-05 18:41 62.65368 11.33131 19874 ft 319 kts 351°
2026-05-05 18:41 62.67563 11.32601 19535 ft 316 kts 350°
2026-05-05 18:41 62.69745 11.32073 19203 ft 314 kts 350°
2026-05-05 18:41 62.71899 11.31552 18869 ft 312 kts 350°
2026-05-05 18:42 62.74056 11.31030 18548 ft 310 kts 350°
2026-05-05 18:42 62.76195 11.30511 18224 ft 308 kts 350°
2026-05-05 18:42 62.78317 11.29995 17859 ft 306 kts 350°
2026-05-05 18:42 62.80422 11.29484 17546 ft 302 kts 350°
2026-05-05 18:43 62.82501 11.28978 17225 ft 299 kts 350°
2026-05-05 18:43 62.84566 11.28616 17012 ft 296 kts 354°
2026-05-05 18:43 62.86630 11.28462 16743 ft 297 kts 355°
2026-05-05 18:43 62.88706 11.28345 16453 ft 302 kts 355°
2026-05-05 18:44 62.90849 11.28216 16124 ft 313 kts 355°
2026-05-05 18:44 62.93032 11.28071 15767 ft 314 kts 355°
2026-05-05 18:44 62.95202 11.27917 15422 ft 311 kts 354°
2026-05-05 18:44 62.97353 11.27757 15085 ft 308 kts 354°
2026-05-05 18:45 62.99490 11.27597 14742 ft 306 kts 355°
2026-05-05 18:45 63.01615 11.27895 14425 ft 306 kts
2026-05-05 18:45 63.03635 11.28782 14103 ft 305 kts
2026-05-05 18:45 63.05699 11.29821 13768 ft 304 kts
2026-05-05 18:46 63.07753 11.30832 13398 ft 302 kts
2026-05-05 18:46 63.09803 11.31789 13035 ft 300 kts
2026-05-05 18:46 63.11801 11.32695 12852 ft 292 kts
2026-05-05 18:46 63.13789 11.33588 12729 ft 284 kts
2026-05-05 18:47 63.15687 11.34538 12588 ft 277 kts 13°
2026-05-05 18:47 63.17471 11.35987 12497 ft 269 kts 18°
2026-05-05 18:47 63.19181 11.37519 12375 ft 261 kts 18°
2026-05-05 18:47 63.20793 11.39116 12252 ft 256 kts 30°
2026-05-05 18:48 63.21997 11.41963 12149 ft 256 kts 59°
2026-05-05 18:48 63.22465 11.45793 11918 ft 261 kts 88°
2026-05-05 18:48 63.22320 11.49815 11689 ft 264 kts 98°
2026-05-05 18:48 63.22024 11.53845 11387 ft 264 kts 99°
2026-05-05 18:49 63.21880 11.57674 11143 ft 262 kts 79°
2026-05-05 18:49 63.22348 11.61539 10897 ft 258 kts 70°
2026-05-05 18:49 63.22869 11.65329 10648 ft 257 kts 71°
2026-05-05 18:49 63.23373 11.69132 10389 ft 256 kts 71°
2026-05-05 18:50 63.24046 11.72742 10117 ft 251 kts 49°
2026-05-05 18:50 63.25175 11.75623 9920 ft 247 kts 44°
2026-05-05 18:50 63.26316 11.78494 9650 ft 247 kts 45°
2026-05-05 18:50 63.27442 11.81362 9411 ft 245 kts 45°
2026-05-05 18:51 63.28631 11.84044 9105 ft 241 kts 27°
2026-05-05 18:51 63.30113 11.85598 8932 ft 234 kts 19°
2026-05-05 18:51 63.31615 11.87076 8661 ft 236 kts 18°
2026-05-05 18:51 63.33170 11.87725 8420 ft 222 kts 347°
2026-05-05 18:52 63.34549 11.86465 8215 ft 215 kts 318°
2026-05-05 18:52 63.35492 11.83969 7967 ft 210 kts 295°
2026-05-05 18:52 63.35946 11.80903 7728 ft 208 kts 283°
2026-05-05 18:52 63.36233 11.77771 7507 ft 209 kts 282°
2026-05-05 18:53 63.36505 11.74619 7345 ft 208 kts 282°
2026-05-05 18:53 63.36785 11.71423 7114 ft 210 kts 282°
2026-05-05 18:53 63.37070 11.68234 6850 ft 209 kts 282°
2026-05-05 18:53 63.37353 11.65069 6621 ft 207 kts 282°
2026-05-05 18:54 63.37634 11.61942 6360 ft 203 kts 282°
2026-05-05 18:54 63.37904 11.58941 6173 ft 192 kts 282°
2026-05-05 18:54 63.38158 11.56108 6055 ft 183 kts 282°
2026-05-05 18:54 63.38664 11.53531 5874 ft 186 kts 309°
2026-05-05 18:55 63.39571 11.51500 5654 ft 183 kts 312°
2026-05-05 18:55 63.40456 11.49510 5448 ft 178 kts 312°
2026-05-05 18:55 63.41324 11.47554 5246 ft 178 kts 312°
2026-05-05 18:55 63.42183 11.45625 5046 ft 172 kts 312°
2026-05-05 18:56 63.43015 11.43759 4833 ft 167 kts 312°
2026-05-05 18:56 63.43820 11.41952 4643 ft 162 kts 312°
2026-05-05 18:56 63.44346 11.40773 4522 ft 162 kts 312°
2026-05-05 18:56 63.45086 11.38865 4309 ft 163 kts 293°
2026-05-05 18:57 63.45283 11.36445 4145 ft 154 kts 279°
2026-05-05 18:57 63.45418 11.34157 4022 ft 141 kts 278°
2026-05-05 18:57 63.45548 11.32070 4011 ft 136 kts 279°
2026-05-05 18:57 63.45659 11.29952 3838 ft 137 kts 276°
2026-05-05 18:58 63.45714 11.27826 3624 ft 136 kts 273°
2026-05-05 18:58 63.45734 11.25728 3410 ft 134 kts 272°
2026-05-05 18:58 63.45742 11.23612 3203 ft 136 kts 271°
2026-05-05 18:58 63.45744 11.21495 2972 ft 136 kts 271°
2026-05-05 18:59 63.45743 11.19379 2744 ft 137 kts 271°
2026-05-05 18:59 63.45742 11.17295 2526 ft 133 kts 270°
2026-05-05 18:59 63.45742 11.15201 2313 ft 136 kts 271°
2026-05-05 18:59 63.45742 11.13085 2111 ft 138 kts 270°
2026-05-05 19:00 63.45745 11.10957 1861 ft 135 kts 271°
2026-05-05 19:00 63.45747 11.08851 1604 ft 136 kts 270°
2026-05-05 19:00 63.45744 11.06760 1400 ft 135 kts 270°
2026-05-05 19:00 63.45745 11.04649 1154 ft 136 kts 270°
2026-05-05 19:01 63.45746 11.02555 936 ft 133 kts 270°
2026-05-05 19:01 63.45748 11.00530 717 ft 131 kts 273°
2026-05-05 19:01 63.45751 10.98515 539 ft 129 kts 271°
2026-05-05 19:01 63.45752 10.96538 358 ft 125 kts 271°
2026-05-05 19:02 63.45757 10.94596 144 ft 124 kts 271°
2026-05-05 19:02 63.45759 10.92751 45 ft 104 kts 270°
2026-05-05 19:02 63.45762 10.91482 36 ft 60 kts 270°
2026-05-05 19:02 63.45759 10.90889 33 ft 22 kts 270°
2026-05-05 19:03 63.45733 10.90562 31 ft 21 kts 251°
2026-05-05 19:03 63.45636 10.90390 32 ft 15 kts 170°
2026-05-05 19:03 63.45599 10.90584 33 ft 15 kts 88°
2026-05-05 19:03 63.45596 10.90808 34 ft 14 kts 91°
2026-05-05 19:04 63.45597 10.91023 34 ft 13 kts 90°
2026-05-05 19:04 63.45596 10.91228 35 ft 13 kts 91°
2026-05-05 19:04 63.45596 10.91427 38 ft 13 kts 90°
2026-05-05 19:04 63.45582 10.91581 38 ft 8 kts 140°
2026-05-05 19:05 63.45573 10.91586 36 ft 2 kts 178°
2026-05-05 19:05 63.45548 10.91583 38 ft 5 kts 181°
2026-05-05 19:05 63.45515 10.91582 38 ft 5 kts 181°
2026-05-05 19:05 63.45500 10.91582 36 ft 0 kts 180°